Miscellaneous Local Product
Issued by NWS Hastings, NE

Home | Current Version | Previous Version | Text Only | Print | Product List | Glossary Off
Versions: 1 2 3 4 5 6 7 8 9 10 11 12 13 14 15 16 17 18 19 20 21 22 23 24 25 26 27 28 29 30 31 32 33 34 35 36 37 38 39 40 41 42 43 44 45 46 47 48 49 50

085
AXUS43 KGID 252102
MISGRI

GID CWA HOURLY WEATHER ROUNDUP
NATIONAL WEATHER SERVICE HASTINGS NE
400 PM CDT SAT MAR 25 2017

NOTE: "FAIR" INDICATES FEW OR NO CLOUDS BELOW 12,000 FEET WITH NO
SIGNIFICANT WEATHER AND/OR OBSTRUCTIONS TO VISIBILITY.

...SOUTH CENTRAL NEBRASKA...

CITY           SKY/WX    TMP DP  RH WIND       PRES   REMARKS
GRAND ISLAND   CLOUDY    40  39  97 N9        29.96F WCI  34
HASTINGS       CLOUDY    40  37  89 N9        29.96F WCI  34
KEARNEY        CLOUDY    43  37  81 N5        29.96F
ORD            CLOUDY    43  38  82 N8        29.95F
YORK           CLOUDY    39  39 100 N15       29.95S FOG     WCI  31
AURORA         CLOUDY    38  38 100 N9        29.96S FOG     WCI  32
LEXINGTON      MOSUNNY   53  43  70 E9        29.92F
HOLDREGE       CLOUDY    45  40  85 N6        29.94F
HEBRON         CLOUDY    41  39  93 N12       29.94F FOG

...NEBRASKA PANHANDLE...

CITY           SKY/WX    TMP DP  RH WIND       PRES   REMARKS
CHADRON        CLOUDY    67  29  24 W6        29.82F
ALLIANCE       SUNNY     63  29  27 S13       29.86F
SCOTTSBLUFF    CLOUDY    67  29  24 S9        29.85F
SIDNEY         CLOUDY    60  31  33 SW10      29.91F

...WESTERN AND NORTH CENTRAL NEBRASKA...

CITY           SKY/WX    TMP DP  RH WIND       PRES   REMARKS
VALENTINE      SUNNY     62  16  16 SE8       29.91F
AINSWORTH      SUNNY     57  36  45 SE8       29.92F
ONEILL         CLOUDY    40  38  92 N6        29.98F
BROKEN BOW     MOSUNNY   51  42  71 E8        29.93F
IMPERIAL       SUNNY     58  23  26 CALM      29.92F
NORTH PLATTE   SUNNY     63  22  20 VRB3      29.90F
MCCOOK         SUNNY     62  31  31 SE6       29.90F

...EASTERN NEBRASKA...

CITY           SKY/WX    TMP DP  RH WIND       PRES   REMARKS
NORFOLK        CLOUDY    39  37  92 NE10      29.96F WCI  32
SO SIOUX CITY  CLOUDY    41  38  89 NE14      29.98F
TEKAMAH        CLOUDY    41  38  89 N17       29.95S
COLUMBUS       CLOUDY    39  36  87 NE12      29.96F WCI  32
ALBION         CLOUDY    41  38  88 N8        29.97S
OMAHA EPPLEY   CLOUDY    43  38  82 N13G22    29.93F
OFFUTT AFB     CLOUDY    43  39  86 N12       29.91F
MILLARD        CLOUDY    45  41  87 NE9       29.93S
LINCOLN        CLOUDY    42  39  89 N17       29.95S
NEBRASKA CITY  DRIZZLE   42  42 100 NE12      29.90F
BEATRICE       LGT RAIN  43  41  93 N13       29.92F
FALLS CITY     NOT AVBL

...NORTHERN KANSAS...

CITY           SKY/WX    TMP DP  RH WIND       PRES   REMARKS
GOODLAND       SUNNY     59  29  31 W3        29.92F
HILL CITY      PTSUNNY   54  42  64 VRB7      29.93F
NORTON         CLEAR     55  39  54 NE5       29.92F
PHILLIPSBURG   CLOUDY    46  39  76 CALM      29.95F
HAYS             N/A     48  39  71 NE10      29.94F
RUSSELL        CLOUDY    49  39  68 N12       29.92F
CONCORDIA      CLOUDY    41  39  93 NW13      29.94F
SALINA         CLOUDY    45  40  82 NW17      29.94F
TOPEKA         LGT RAIN  48  46  93 N10       29.86S



USA.gov is the U.S. government's official web portal to all federal, state and local government web resources and services.